(148145) = 1999 VW165

Discovered at Socorro on 1999-11-14 by LINEAR.

Orbit

Orbit type: Main Belt

Note: WebGL enabled browser required.

epoch2024-03-31.0
epoch JD2460400.5
perihelion date2023-09-06.43360
perihelion JD2460193.93360
argument of perihelion (°)6.36994
ascending node (°)29.30124
inclination (°)4.08996
eccentricity0.0920444
perihelion distance (AU)2.0613718
Tisserand w.r.t. Jupiter3.6
ΔV w.r.t. Earth (km/sec)9.0
semimajor axis (AU)2.2703442
mean anomaly (°)59.51497
mean daily motion (°/day)0.28811540
aphelion distance (AU)2.479
period (years)3.42
P-vector [x]0.81251519
P-vector [y]0.53164009
P-vector [z]0.23911896
Q-vector [x]-0.58189404
Q-vector [y]0.71512085
Q-vector [z]0.38730026
absolute magnitude17.22
phase slope0.15
uncertainty0
referenceE2024-F93
observations used570
oppositions16
arc length (days)8902
first opposition used1999
last opposition used2024
residual rms (arc-secs)0.65
perturbers coarse indicatorM-v
perturbers precise indicator003Ek
first observation date used1999-11-11.0
last observation date used2024-03-27.0
computer nameMPCLINUX
JD of orbit computation2456700.450335
perihelion JD uncertainty (days)9.8544E-05
argument of perihelion uncertainty (°)7.5317E-05
ascending node uncertainty (°)6.9676E-05
inclination uncertainty (°)4.5078E-06
eccentricity uncertainty 4.2643E-08
perihelion distance uncertainty (AU)9.5812E-08
Minimum Orbit Intersection Distances (in AU)
for orbit epoch: 2460400.5, reference: E2024-F93
Mercury1.73038
Venus1.33865
Earth1.06805
Mars0.56942
Jupiter2.84623
Saturn6.87512
Uranus16.0286
Neptune27.7622

Observations

580 total observations over interval: 1999 11 11.92819 – 2024 01 04.419214
These data are available for download (format description).

Date (UT) J2000 RA J2000 Dec Magn Location Ref
1999 11 11.92819 03 33 11.34 +22 21 56.9 20.5 V 012 – Uccle MPS 23732
1999 11 11.93376 03 33 10.94 +22 21 55.6 20.2 V 012 – Uccle MPS 23732
1999 11 11.95955 03 33 09.15 +22 21 54.1 19.8 V 012 – Uccle MPS 23732
1999 11 14.29490 03 30 30.07 +22 19 23.3 18.9   704 – Lincoln Laboratory ETS, New Mexico MPS 10864
1999 11 14.30918 03 30 29.03 +22 19 21.2 19.2   704 – Lincoln Laboratory ETS, New Mexico MPS 10864
1999 11 14.32344 03 30 27.99 +22 19 20.5 19.0   704 – Lincoln Laboratory ETS, New Mexico MPS 10864
1999 11 14.33772 03 30 27.03 +22 19 19.9 19.5   704 – Lincoln Laboratory ETS, New Mexico MPS 10864
1999 11 14.35223 03 30 25.90 +22 19 18.2 19.2   704 – Lincoln Laboratory ETS, New Mexico MPS 10864
1999 11 16.24881 03 28 16.15 +22 16 51.4 19.3   704 – Lincoln Laboratory ETS, New Mexico MPS 10864
1999 11 16.26305 03 28 15.10 +22 16 51.6 18.7   704 – Lincoln Laboratory ETS, New Mexico MPS 10864
1999 11 16.27733 03 28 14.06 +22 16 49.4 19.1   704 – Lincoln Laboratory ETS, New Mexico MPS 10864
2001 03 19.36059 13 42 16.57 -08 57 08.2 21.2 V 691 – Steward Observatory, Kitt Peak-Spacewatch MPS 103792
2001 03 19.38196 13 42 15.58 -08 57 04.8 21.1 V 691 – Steward Observatory, Kitt Peak-Spacewatch MPS 103792
2001 03 19.40368 13 42 14.59 -08 57 01.0 21.4 V 691 – Steward Observatory, Kitt Peak-Spacewatch MPS 103792
2001 04 28.23445 13 04 42.54 -06 23 23.4 21.4 V 691 – Steward Observatory, Kitt Peak-Spacewatch MPS 103792
2001 04 28.26317 13 04 40.98 -06 23 17.3 21.3 V 691 – Steward Observatory, Kitt Peak-Spacewatch MPS 103792
2001 04 28.29048 13 04 39.47 -06 23 12.0 21.5 V 691 – Steward Observatory, Kitt Peak-Spacewatch MPS 103792
2002 08 11.43418 22 53 59.48 -13 58 22.8   608 – Haleakala-AMOS MPS 83939
2002 08 11.44449 22 53 58.97 -13 58 26.6 19.4 R 608 – Haleakala-AMOS MPS 83939
2002 08 11.45488 22 53 58.47 -13 58 28.8 19.5 R 608 – Haleakala-AMOS MPS 83939
2002 08 18.47567 22 48 14.80 -14 31 51.8 19.0 R 644 – Palomar Mountain/NEAT MPS 83939
2002 08 18.48600 22 48 14.23 -14 31 54.1 19.6 R 644 – Palomar Mountain/NEAT MPS 83939
2002 08 18.49634 22 48 13.68 -14 31 57.3 19.6 R 644 – Palomar Mountain/NEAT MPS 83939
2002 08 19.43024 22 47 23.60 -14 36 27.5 19.2 R 644 – Palomar Mountain/NEAT MPS 83939
2002 08 19.44059 22 47 23.05 -14 36 30.4 19.2 R 644 – Palomar Mountain/NEAT MPS 83939
2002 08 19.45104 22 47 22.42 -14 36 33.5 18.5 R 644 – Palomar Mountain/NEAT MPS 83939
2002 08 29.40145 22 37 44.57 -15 22 35.5 18.4 R 644 – Palomar Mountain/NEAT MPS 83939
2002 08 29.41436 22 37 43.76 -15 22 38.4 18.6 R 644 – Palomar Mountain/NEAT MPS 83939
2002 08 29.42497 22 37 43.07 -15 22 41.4 18.6 R 644 – Palomar Mountain/NEAT MPS 83939
2002 08 30.43524 22 36 41.77 -15 26 58.6 19.2 R 644 – Palomar Mountain/NEAT MPS 83939
2002 08 30.44601 22 36 41.06 -15 27 01.6 18.8 R 644 – Palomar Mountain/NEAT MPS 83939
2002 08 30.45689 22 36 40.38 -15 27 04.1 18.6 R 644 – Palomar Mountain/NEAT MPS 83939
2002 09 15.25779 22 21 26.15 -16 16 13.3 19.4 R 644 – Palomar Mountain/NEAT MPS 140002
2002 09 15.27906 22 21 25.00 -16 16 15.9 19.4 R 644 – Palomar Mountain/NEAT MPS 140002
2002 09 15.30001 22 21 23.86 -16 16 18.3 19.2 R 644 – Palomar Mountain/NEAT MPS 140002
2002 09 16.29937 22 20 33.33 -16 17 58.7 19.3 R 644 – Palomar Mountain/NEAT MPS 83939
2002 09 16.32051 22 20 32.26 -16 18 00.2 19.2 R 644 – Palomar Mountain/NEAT MPS 83939
2002 09 16.34149 22 20 31.15 -16 18 01.8 19.5 R 644 – Palomar Mountain/NEAT MPS 83939
2003 12 25.455580 10 41 45.897 +14 07 11.55 21.32 V 645 – Apache Point-Sloan Digital Sky Survey MPS 136840
2003 12 25.459052 10 41 45.960 +14 07 11.45 22.19   645 – Apache Point-Sloan Digital Sky Survey MPS 136840
2004 02 16.28595 10 16 48.34 +17 19 20.2 20.5 V 691 – Steward Observatory, Kitt Peak-Spacewatch MPS 103792
2004 02 16.31467 10 16 46.42 +17 19 28.8 20.7 V 691 – Steward Observatory, Kitt Peak-Spacewatch MPS 103792
2004 02 16.34289 10 16 44.52 +17 19 37.5 20.4 V 691 – Steward Observatory, Kitt Peak-Spacewatch MPS 103792
2004 03 16.13016 09 49 20.59 +18 47 18.6 21.0 V 691 – Steward Observatory, Kitt Peak-Spacewatch MPS 103792
2004 03 16.15702 09 49 19.47 +18 47 18.8 20.2 V 691 – Steward Observatory, Kitt Peak-Spacewatch MPS 103792
2004 03 16.18428 09 49 18.34 +18 47 21.0 20.9 V 691 – Steward Observatory, Kitt Peak-Spacewatch MPS 103792
2006 12 27.09854 05 18 15.42 +29 27 40.1   691 – Steward Observatory, Kitt Peak-Spacewatch MPS 191758
2006 12 27.11586 05 18 14.27 +29 27 39.6   691 – Steward Observatory, Kitt Peak-Spacewatch MPS 191758
2006 12 27.13316 05 18 13.10 +29 27 39.0   691 – Steward Observatory, Kitt Peak-Spacewatch MPS 191758
2007 01 10.20388 05 05 51.44 +29 09 21.2 19.4   704 – Lincoln Laboratory ETS, New Mexico MPS 195415
2007 01 10.21655 05 05 50.97 +29 09 20.6 20.4   704 – Lincoln Laboratory ETS, New Mexico MPS 195415
2007 01 10.24196 05 05 49.85 +29 09 15.2 20.2   704 – Lincoln Laboratory ETS, New Mexico MPS 195415
2007 01 10.25462 05 05 49.30 +29 09 14.7 20.4   704 – Lincoln Laboratory ETS, New Mexico MPS 195415
2008 04 04.35571 14 51 47.22 -16 57 12.0 20.7 V 691 – Steward Observatory, Kitt Peak-Spacewatch MPS 245563
2008 04 04.37333 14 51 46.43 -16 57 10.9 20.6 V 691 – Steward Observatory, Kitt Peak-Spacewatch MPS 245563
2008 04 04.38857 14 51 45.77 -16 57 09.9 20.7 V 691 – Steward Observatory, Kitt Peak-Spacewatch MPS 245563
2009 08 29.07851 00 41 48.00 -00 03 29.2 20.1 V J75 – OAM Observatory, La Sagra MPS 294248
2009 08 29.09081 00 41 47.60 -00 03 30.2 20.1 V J75 – OAM Observatory, La Sagra MPS 294248
2009 08 29.10317 00 41 47.24 -00 03 32.9 19.7 V J75 – OAM Observatory, La Sagra MPS 294248
2009 09 10.40884 00 34 17.47 -00 36 57.4 19.1 V 703 – Catalina Sky Survey MPS 294839
2009 09 10.41478 00 34 17.18 -00 36 58.6 19.8 V 703 – Catalina Sky Survey MPS 294839
2009 09 10.42061 00 34 16.89 -00 37 00.1 19.8 V 703 – Catalina Sky Survey MPS 294839
2009 09 10.42655 00 34 16.60 -00 37 01.4 18.8 V 703 – Catalina Sky Survey MPS 294839
2009 09 14.08649 00 31 17.33 -00 49 56.2 19.2 V J75 – OAM Observatory, La Sagra MPS 295593
2009 09 14.08851 00 31 17.16 -00 49 56.5 19.1 V J75 – OAM Observatory, La Sagra MPS 295593
2009 09 14.09884 00 31 16.67 -00 49 59.4 18.5 V J75 – OAM Observatory, La Sagra MPS 295593
2009 09 14.10086 00 31 16.54 -00 49 59.4 19.8 V J75 – OAM Observatory, La Sagra MPS 295593
2009 09 14.11117 00 31 15.92 -00 50 01.3 19.1 V J75 – OAM Observatory, La Sagra MPS 295593
2009 09 14.11318 00 31 15.79 -00 50 01.3 18.7 V J75 – OAM Observatory, La Sagra MPS 295593
2009 09 14.31615 00 31 05.59 -00 50 45.9 19.6   704 – Lincoln Laboratory ETS, New Mexico MPS 295593
2009 09 14.32781 00 31 04.99 -00 50 48.6 19.7   704 – Lincoln Laboratory ETS, New Mexico MPS 295593
2009 09 14.33950 00 31 04.36 -00 50 51.1 19.6   704 – Lincoln Laboratory ETS, New Mexico MPS 295593
2009 09 14.35118 00 31 03.71 -00 50 53.5 19.8   704 – Lincoln Laboratory ETS, New Mexico MPS 295593
2009 09 14.36288 00 31 03.07 -00 50 56.6 19.5   704 – Lincoln Laboratory ETS, New Mexico MPS 295593
2009 09 23.30057 00 22 42.78 -01 25 06.3 19.1 V G96 – Mt. Lemmon Survey MPS 296681
2009 09 23.31045 00 22 42.16 -01 25 07.7 18.8 V G96 – Mt. Lemmon Survey MPS 296681
2009 09 23.32024 00 22 41.59 -01 25 10.9 19.4 V G96 – Mt. Lemmon Survey MPS 296681
2009 09 23.33009 00 22 40.94 -01 25 13.1 19.1 V G96 – Mt. Lemmon Survey MPS 296681
2009 09 25.38926 00 20 38.36 -01 33 04.9 19.1 V 703 – Catalina Sky Survey MPS 297654
2009 09 25.39425 00 20 38.07 -01 33 07.8 19.1 V 703 – Catalina Sky Survey MPS 297654
2009 09 25.39938 00 20 37.71 -01 33 07.4 19.1 V 703 – Catalina Sky Survey MPS 297654
2009 09 25.40443 00 20 37.42 -01 33 08.1 19.0 V 703 – Catalina Sky Survey MPS 297654
2009 10 10.82985 00 05 43.43 -02 22 59.2 19.3 V J75 – OAM Observatory, La Sagra MPS 299125
2009 10 10.84346 00 05 42.70 -02 23 00.8 19.0 V J75 – OAM Observatory, La Sagra MPS 299125
2009 10 10.85684 00 05 41.97 -02 23 02.4 19.3 V J75 – OAM Observatory, La Sagra MPS 299125
2009 10 18.23490 23 59 47.72 -02 36 13.6 19.2 V G96 – Mt. Lemmon Survey MPS 300357
2009 10 18.24291 23 59 47.36 -02 36 14.2 19.3 V G96 – Mt. Lemmon Survey MPS 300357
2009 10 18.25089 23 59 47.04 -02 36 14.7 19.4 V G96 – Mt. Lemmon Survey MPS 300357
